Weather History for KI16 - January, 2013

Change the Weather History Date:

Thursday, January 10, 2013

  Actual Average (KBKW) Record (KBKW)
Temperature  
Mean Temperature 47 °F 31 °F  
Max Temperature 60 °F 39 °F 70 °F (1946)
Min Temperature 36 °F 23 °F -13 °F (1982)
Degree Days  
Heating Degree Days 18 34  
Month to date heating degree days 340  
Since 1 July heating degree days 2433  
Cooling Degree Days 0 0  
Month to date cooling degree days 0  
Year to date cooling degree days 0  
Moisture  
Dew Point 43 °F    
Average Humidity 90    
Maximum Humidity 100    
Minimum Humidity 55    
Precipitation  
Precipitation 0.00 in 0.09 in 1.83 in (1974)
Month to date precipitation 0.92  
Year to date precipitation 0.92  
Snow  
Snow 0.00 in - - ()
Month to date snowfall  
Since 1 September snowfall  
Snow Depth -    
Sea Level Pressure  
Sea Level Pressure 30.47 in    
Wind  
Wind Speed - (North)    
Max Wind Speed -    
Max Gust Speed -    
Visibility 7 miles    
Events Fog    
T = Trace of Precipitation, MM = Missing Value Source: NWS Daily Summary

Daily Weather History Graph

Daily Weather History Graph

Search for Another Location

Airport or City:

Trip Planner

Search our weather history database for the weather conditions in past years. The results will help you decide how hot, cold, wet, or windy it might be!

Date:

Astronomy

Jan. 10, 2013 Rise Set
Actual Time 7:41 AM EST 5:26 PM EST
Civil Twilight 7:12 AM EST 5:55 PM EST
Nautical Twilight 6:39 AM EST 6:28 PM EST
Astronomical Twilight 6:08 AM EST 6:59 PM EST
Moon 6:19 AM EST (1/10) 4:32 PM EST (1/10)
Length of Visible Light 10h 43m
Length of Day
9h 45m
Waning Crescent, 2% of the Moon is Illuminated
Jan 10
Waning Crescent
Jan 11
New
Jan 18
First Quarter
Jan 26
Full
Feb 3
Last Quarter

Hourly Weather History & Observations

Time (EST) Temp. Dew Point Humidity Pressure Visibility Wind Dir Wind Speed Gust Speed Precip Events Conditions
12:35 AM 40.1 °F 40.1 °F 100% 30.55 in 0.5 mi North - - N/A Fog Fog
12:55 AM 40.3 °F 40.3 °F 100% 30.55 in 0.5 mi North - - N/A Fog Fog
1:15 AM 40.5 °F 40.5 °F 100% 30.55 in 0.5 mi North - - N/A Fog Fog
3:15 AM 39.0 °F 39.0 °F 100% 30.54 in 0.5 mi North - - N/A Fog Fog
3:35 AM 39.9 °F 39.9 °F 100% 30.54 in 0.5 mi North - - N/A Fog Fog
3:55 AM 39.0 °F 39.0 °F 100% 30.53 in 0.5 mi North - - N/A Fog Fog
4:15 AM 39.7 °F 39.7 °F 100% 30.53 in 0.5 mi North - - N/A Fog Fog
4:55 AM 40.1 °F 40.1 °F 100% 30.53 in 0.2 mi North - - N/A Fog Fog
5:15 AM 39.4 °F 39.4 °F 100% 30.53 in 0.2 mi North - - N/A Fog Fog
5:35 AM 38.5 °F 38.5 °F 100% 30.53 in 0.2 mi North - - N/A   Unknown
5:55 AM 37.9 °F 37.9 °F 100% 30.54 in 0.8 mi North - - N/A   Overcast
6:15 AM 38.3 °F 38.3 °F 100% 30.54 in 0.8 mi North - - N/A   Overcast
6:35 AM 37.9 °F 37.9 °F 100% 30.55 in 3.0 mi North - - N/A   Overcast
6:55 AM 37.4 °F 37.4 °F 100% 30.54 in 5.0 mi North - - N/A   Mostly Cloudy
7:15 AM 37.4 °F 37.4 °F 100% 30.54 in 5.0 mi North - - N/A   Mostly Cloudy
7:35 AM 36.9 °F 36.9 °F 100% 30.55 in 5.0 mi North - - N/A   Scattered Clouds
7:55 AM 37.4 °F 37.4 °F 100% 30.55 in 7.0 mi North - - N/A   Mostly Cloudy
8:15 AM 37.6 °F 37.6 °F 100% 30.57 in 5.0 mi North - - N/A   Overcast
8:35 AM 38.1 °F 38.1 °F 100% 30.57 in 3.0 mi North - - N/A   Overcast
8:55 AM 38.8 °F 38.8 °F 100% 30.57 in 5.0 mi North - - N/A   Overcast
9:15 AM 39.7 °F 39.7 °F 100% 30.58 in 5.0 mi North - - N/A   Mostly Cloudy
9:35 AM 40.6 °F 40.6 °F 100% 30.57 in 7.0 mi North - - N/A   Clear
9:55 AM 41.5 °F 41.5 °F 100% 30.57 in 10.0 mi North - - N/A   Mostly Cloudy
10:15 AM 42.3 °F 42.3 °F 100% 30.57 in 10.0 mi North - - N/A   Overcast
10:35 AM 43.2 °F 43.2 °F 100% 30.55 in 10.0 mi North - - N/A   Scattered Clouds
10:55 AM 45.5 °F 45.5 °F 100% 30.54 in 10.0 mi North - - N/A   Scattered Clouds
11:15 AM 45.5 °F 45.5 °F 100% 30.53 in 10.0 mi North - - N/A   Clear
11:35 AM 46.4 °F 45.9 °F 98% 30.52 in 10.0 mi North - - N/A   Mostly Cloudy
11:55 AM 47.7 °F 46.4 °F 95% 30.51 in 10.0 mi North - - N/A   Overcast
12:15 PM 49.3 °F 47.7 °F 94% 30.49 in 10.0 mi North - - N/A   Mostly Cloudy
12:35 PM 50.9 °F 48.7 °F 92% 30.48 in 10.0 mi North - - N/A   Scattered Clouds
12:55 PM 51.6 °F 47.3 °F 85% 30.46 in 10.0 mi North - - N/A   Scattered Clouds
1:15 PM 52.9 °F 47.3 °F 81% 30.45 in 10.0 mi North - - N/A   Overcast
1:35 PM 54.5 °F 47.1 °F 76% 30.43 in 10.0 mi North - - N/A   Overcast
1:55 PM 57.9 °F 41.7 °F 55% 30.43 in 10.0 mi North - - N/A   Overcast
2:15 PM 57.2 °F 45.9 °F 66% 30.42 in 10.0 mi North - - N/A   Mostly Cloudy
2:35 PM 56.8 °F 46.6 °F 69% 30.42 in 10.0 mi North - - N/A   Scattered Clouds
2:55 PM 58.6 °F 43.5 °F 57% 30.42 in 10.0 mi North - - N/A   Clear
3:35 PM 57.2 °F 48.4 °F 72% 30.41 in 10.0 mi North - - N/A   Clear
3:55 PM 57.2 °F 49.6 °F 76% 30.41 in 10.0 mi North - - N/A   Clear
4:15 PM 56.7 °F 48.7 °F 75% 30.41 in 10.0 mi North - - N/A   Clear
4:35 PM 55.6 °F 48.9 °F 78% 30.41 in 10.0 mi North - - N/A   Clear
4:55 PM 53.6 °F 48.2 °F 82% 30.40 in 10.0 mi North - - N/A   Clear
5:15 PM 52.3 °F 47.5 °F 84% 30.40 in 10.0 mi North - - N/A   Clear
5:35 PM 51.6 °F 46.8 °F 83% 30.40 in 10.0 mi North - - N/A   Clear
5:55 PM 51.1 °F 46.2 °F 83% 30.40 in 10.0 mi North - - N/A   Clear
6:15 PM 50.2 °F 45.5 °F 84% 30.40 in 10.0 mi North - - N/A   Scattered Clouds
6:35 PM 49.8 °F 45.1 °F 84% 30.40 in 10.0 mi North - - N/A   Clear
6:55 PM 49.5 °F 44.8 °F 84% 30.39 in 10.0 mi North - - N/A   Clear
7:15 PM 48.7 °F 44.8 °F 86% 30.39 in 10.0 mi North - - N/A   Clear
7:35 PM 48.6 °F 44.8 °F 87% 30.39 in 10.0 mi North - - N/A   Clear
7:55 PM 48.2 °F 44.2 °F 86% 30.39 in 10.0 mi North - - N/A   Clear
8:15 PM 48.2 °F 44.2 °F 86% 30.39 in 10.0 mi North - - N/A   Mostly Cloudy
8:35 PM 48.2 °F 44.2 °F 86% 30.38 in 10.0 mi North - - N/A   Mostly Cloudy
8:55 PM 47.3 °F 44.1 °F 88% 30.38 in 10.0 mi North - - N/A   Scattered Clouds
9:35 PM 46.6 °F 43.9 °F 90% 30.37 in 10.0 mi North - - N/A   Scattered Clouds
9:55 PM 46.0 °F 43.7 °F 92% 30.36 in 10.0 mi North - - N/A   Scattered Clouds
10:15 PM 45.5 °F 43.7 °F 93% 30.36 in 10.0 mi North - - N/A   Clear
10:35 PM 45.5 °F 43.7 °F 93% 30.35 in 10.0 mi North - - N/A   Clear
10:55 PM 45.7 °F 43.5 °F 92% 30.33 in 10.0 mi North - - N/A   Clear
11:15 PM 48.0 °F 44.4 °F 87% 30.32 in 10.0 mi North - - N/A   Clear
11:35 PM 48.4 °F 43.7 °F 84% 30.32 in 10.0 mi North - - N/A   Clear